Location: Unspecified
(51.5147°N, 7.4673°E)
Time: 17:57:36
(UTC+01:00)

Vanguard 1 - Pass Details

Date: 17 February 2026
Orbit: 653 x 3818 km, 34.2° (Epoch: 5 March)

Event Time Altitude Azimuth Distance (km) Brightness Sun altitude
Rises 20:39:02 0° 268° (W) 6,325 15.3 -26.9°
Reaches altitude 10° 20:43:12 10° 261° (W) 5,692 14.7 -27.5°
Maximum altitude 20:59:15 36° 203° (SSW) 4,819 13.4 -29.9°
Enters shadow 21:13:00 20° 157° (SSE) 6,036 13.6 -31.9°
